{"data":{"norad_id":58365,"epoch":"2026-05-24T20:24:05.696352Z","epoch_age_seconds":81790,"freshness":"FRESH","line1":"1 58365U 23177Q   26144.85006593  .00000366  00000+0  22832-4 0  9995","line2":"2 58365  43.0026 280.6234 0001807 265.3373  94.7272 15.27572478139860","mean_motion":15.27572478,"eccentricity":0.0001807,"inclination_deg":43.0026,"raan_deg":280.6234,"arg_perigee_deg":265.3373,"mean_anomaly_deg":94.7272,"bstar":2.2832e-5,"rev_number":13986,"period_min":94.267212897508,"perigee_km":481.83179930852,"apogee_km":484.31144010368,"semimajor_km":6861.2086197061,"source":"CELESTRAK","updated_at":"2026-05-25T13:38:18.609305Z"}}